Regional Weather Roundup
Issued by NWS State College, PA

Current Version | Previous Version | Text Only | Print | Product List | Glossary On
Versions: 1 2 3 4 5 6 7 8 9 10 11 12 13 14 15 16 17 18 19 20 21 22 23 24 25 26 27 28 29 30 31 32 33 34 35 36 37 38 39 40 41 42 43 44 45 46 47 48 49 50
000
ASUS41 KCTP 211910
RWRCTP

REGIONAL WEATHER ROUNDUP
NATIONAL WEATHER SERVICE STATE COLLEGE PA
300 PM EDT FRI JUL 21 2017

Note: "fair" indicates few or no clouds below 12,000 feet with no
significant weather and/or obstructions to visibility.

* = STATION THAT DOES NOT REPORT PRECIPITATION /E.G. RAIN...SNOW...ETC/
    THUNDER OR FOG.

PAZ002>004-007>009-013>016-020>023-029>032-212000-
WESTERN PENNSYLVANIA

CITY           SKY/WX    TMP DP  RH WIND       PRES   REMARKS
ERIE           MOSUNNY   81  71  71 NW9       29.96F
MEADVILLE      MOSUNNY   84  70  62 VRB5      29.99F
FRANKLIN*      MOSUNNY   84  66  54 W3        30.01R
NEW CASTLE     FAIR      88  72  58 VRB3      29.99S
BEAVER COUNTY  MOSUNNY   86  70  58 NW6       29.99F
BUTLER*        CLOUDY    86  70  58 CALM      29.99S
PITTSBURGH INT CLOUDY    84  72  67 SE3       29.98F
PITTSBURGH     PTSUNNY   85  68  56 CALM      29.98F
INDIANA*       SUNNY     84  70  61 CALM      30.03R
LATROBE        PTSUNNY   82  73  74 N12       30.00S
WASHINGTON CO* CLOUDY    82  73  74 CALM      29.99F
$$

PAZ004>006-010>012-017>019-024>028-033>037-041-042-045-046-049>053-212000-
CENTRAL PENNSYLVANIA

CITY           SKY/WX    TMP DP  RH WIND       PRES   REMARKS
BRADFORD       MOSUNNY   83  66  56 W8        30.01F
DUBOIS         MOSUNNY   82  65  56 CALM      30.00F
CLEARFIELD     MOSUNNY   88  62  41 NW8       29.99S
JOHNSTOWN      PTSUNNY   82  67  60 NW10      30.05S
ALTOONA        CLOUDY    86  70  58 NW5       30.00S
STATE COLLEGE  MOSUNNY   86  70  58 S5        29.97F
WILLIAMSPORT   MOSUNNY   90  70  51 SW7       29.89F HX  95
SELINSGROVE    MOSUNNY   86  75  69 S5        29.92F HX  95
FT INDIANTOWN  PTSUNNY   89  69  52 SW8       29.93F
CAPITAL CITY   PTSUNNY   90  69  50 SW9       29.92F
HARRISBURG     CLOUDY    90  72  55 SE3       29.92F HX  97
YORK           CLOUDY    89  74  60 NE7       29.94S HX  98
$$

PAZ038>040-043-044-047-048-054-055-060>062-067>071-212000-
EASTERN PENNSYLVANIA

CITY           SKY/WX    TMP DP  RH WIND       PRES   REMARKS
SCRANTON       PTSUNNY   85  68  56 NW6       29.94S
MOUNT POCONO   CLOUDY    79  65  62 W6        29.99F
ALLENTOWN      CLOUDY    90  68  48 VRB7      29.91F
QUAKERTOWN*    CLOUDY    88  68  51 W7        29.94S
READING        CLOUDY    89  72  56 W7        29.91F HX  96
LANCASTER      CLOUDY    92  71  50 MISG      29.93F HX  98
COATESVILLE    CLOUDY    86  70  58 NW7       29.96F
POTTSTOWN      CLOUDY    87  69  54 SW6       29.94F
BLUE BELL      CLOUDY    86  72  62 W5        29.93F
DOYLESTOWN     CLOUDY    90  67  46 NW8       29.91F
WILLOW GROVE   NOT AVBL
NORTH PHILA    MOSUNNY   93  70  46 W9        29.91F HX  99
PHILADELPHIA   CLOUDY    92  67  43 W10       29.91S HX  95
$$




USA.gov is the U.S. government's official web portal to all federal, state and local government web resources and services.